When you browse on this site, cookies collect data to enhance your experience and personalize the content and advertising you see.
Visit our Privacy Policy to learn more. By continuing to use the site, you agree to this use of cookies and data.
  • In Romania
  • List of Countries
  • For 7 days
  • Water Temperature
  • Satellite Maps
  • Weather Map
  • Weather Widgets
  • user-avatar
    Login

    Hourly Weather Myzovka

    Today, 22 May, Wednesday

    Time Temperature Precipitation Wind Pressure Humidity
    00:00 +15°C° 0 mm 2 mps 742 mmHg 82%
    01:00 +14°C° 0 mm 2 mps 742 mmHg 82%
    02:00 +14°C° 0 mm 2 mps 742 mmHg 78%
    03:00 +14°C° 0 mm 2 mps 742 mmHg 79%
    04:00 +14°C° 0 mm 2 mps 741 mmHg 79%
    05:00 +14°C° 0 mm 2 mps 741 mmHg 80%
    06:00 +16°C° 0 mm 2 mps 741 mmHg 78%
    07:00 +17°C° 0 mm 2 mps 741 mmHg 75%
    08:00 +19°C° 0 mm 2 mps 741 mmHg 72%
    09:00 +20°C° 0.1 mm 2 mps 740 mmHg 69%
    10:00 +20°C° 0.1 mm 3 mps 740 mmHg 67%
    11:00 +21°C° 0.1 mm 3 mps 740 mmHg 64%
    12:00 +22°C° 0.5 mm 3 mps 739 mmHg 65%
    13:00 +22°C° 0.5 mm 4 mps 739 mmHg 66%
    14:00 +22°C° 0.5 mm 4 mps 738 mmHg 67%
    15:00 +22°C° 0.3 mm 4 mps 738 mmHg 70%
    16:00 +22°C° 0.3 mm 3 mps 738 mmHg 72%
    17:00 +22°C° 0.3 mm 3 mps 738 mmHg 75%
    18:00 +20°C° 0.1 mm 3 mps 737 mmHg 80%
    19:00 +19°C° 0.1 mm 2 mps 737 mmHg 84%
    20:00 +17°C° 0.1 mm 2 mps 737 mmHg 89%
    21:00 +17°C° 0.7 mm 2 mps 737 mmHg 90%
    22:00 +16°C° 0.7 mm 2 mps 736 mmHg 91%
    23:00 +16°C° 0.7 mm 2 mps 736 mmHg 91%

    Tomorrow, 23 May, Thursday

    Time Temperature Precipitation Wind Pressure Humidity
    00:00 +16°C° 0 mm 2 mps 736 mmHg 92%
    01:00 +15°C° 0 mm 2 mps 736 mmHg 93%
    02:00 +15°C° 0 mm 2 mps 736 mmHg 93%
    03:00 +15°C° 0 mm 2 mps 736 mmHg 93%
    04:00 +15°C° 0 mm 2 mps 735 mmHg 94%
    05:00 +15°C° 0 mm 2 mps 735 mmHg 94%
    06:00 +17°C° 0 mm 2 mps 735 mmHg 89%
    07:00 +18°C° 0 mm 2 mps 735 mmHg 84%
    08:00 +20°C° 0 mm 2 mps 735 mmHg 79%
    09:00 +21°C° 0.2 mm 3 mps 735 mmHg 74%
    10:00 +22°C° 0.2 mm 3 mps 735 mmHg 70%
    11:00 +23°C° 0.2 mm 4 mps 735 mmHg 65%
    12:00 +25°C° 0.2 mm 4 mps 735 mmHg 62%
    13:00 +25°C° 0.2 mm 3 mps 734 mmHg 59%
    14:00 +26°C° 0.2 mm 3 mps 734 mmHg 56%
    15:00 +25°C° 0.3 mm 3 mps 734 mmHg 62%
    16:00 +25°C° 0.3 mm 3 mps 734 mmHg 67%
    17:00 +24°C° 0.3 mm 3 mps 734 mmHg 73%
    18:00 +21°C° 0.3 mm 2 mps 734 mmHg 78%
    19:00 +20°C° 0.3 mm 2 mps 734 mmHg 82%
    20:00 +18°C° 0.3 mm 2 mps 734 mmHg 87%
    21:00 +17°C° 0.8 mm 2 mps 734 mmHg 88%
    22:00 +17°C° 0.8 mm 2 mps 735 mmHg 90%
    23:00 +16°C° 0.8 mm 1 mps 735 mmHg 92%

    Day after tomorrow, 24 May, Friday

    Time Temperature Precipitation Wind Pressure Humidity
    00:00 +16°C° 0 mm 2 mps 735 mmHg 93%
    01:00 +15°C° 0 mm 2 mps 735 mmHg 94%
    02:00 +15°C° 0 mm 2 mps 736 mmHg 95%
    03:00 +15°C° 0 mm 2 mps 736 mmHg 95%
    04:00 +14°C° 0 mm 3 mps 736 mmHg 95%
    05:00 +14°C° 0 mm 3 mps 737 mmHg 95%
    06:00 +14°C° 0 mm 4 mps 737 mmHg 94%
    07:00 +14°C° 0 mm 4 mps 737 mmHg 92%
    08:00 +14°C° 0 mm 4 mps 738 mmHg 91%
    09:00 +14°C° 0 mm 4 mps 738 mmHg 90%
    10:00 +14°C° 0 mm 4 mps 738 mmHg 89%
    11:00 +14°C° 0 mm 4 mps 738 mmHg 89%
    12:00 +14°C° 0 mm 4 mps 738 mmHg 87%
    13:00 +15°C° 0 mm 4 mps 738 mmHg 85%
    14:00 +15°C° 0 mm 4 mps 739 mmHg 82%
    15:00 +17°C° 0 mm 4 mps 738 mmHg 81%
    16:00 +17°C° 0 mm 4 mps 738 mmHg 80%
    17:00 +17°C° 0 mm 4 mps 738 mmHg 79%
    18:00 +16°C° 0 mm 3 mps 738 mmHg 84%
    19:00 +14°C° 0 mm 3 mps 738 mmHg 88%
    20:00 +14°C° 0 mm 2 mps 739 mmHg 93%
    21:00 +12°C° 0 mm 3 mps 739 mmHg 94%
    22:00 +12°C° 0 mm 3 mps 738 mmHg 95%
    23:00 +12°C° 0 mm 3 mps 738 mmHg 95%

    25 May, Saturday

    Time Temperature Precipitation Wind Pressure Humidity
    00:00 +11°C° 0 mm 3 mps 738 mmHg 95%
    01:00 +11°C° 0 mm 4 mps 738 mmHg 95%
    02:00 +11°C° 0 mm 4 mps 738 mmHg 95%
    03:00 +11°C° 0.1 mm 4 mps 738 mmHg 94%
    04:00 +12°C° 0.1 mm 4 mps 738 mmHg 94%
    05:00 +12°C° 0.1 mm 4 mps 737 mmHg 93%
    06:00 +13°C° 0.3 mm 4 mps 737 mmHg 91%
    07:00 +14°C° 0.3 mm 4 mps 737 mmHg 90%
    08:00 +15°C° 0.3 mm 5 mps 737 mmHg 88%
    09:00 +16°C° 0 mm 5 mps 737 mmHg 86%
    10:00 +17°C° 0 mm 5 mps 736 mmHg 84%
    11:00 +19°C° 0 mm 4 mps 736 mmHg 82%
    12:00 +20°C° 0.6 mm 5 mps 735 mmHg 80%
    13:00 +21°C° 0.6 mm 5 mps 735 mmHg 77%
    14:00 +22°C° 0.6 mm 5 mps 735 mmHg 75%
    15:00 +21°C° 0.2 mm 5 mps 734 mmHg 77%
    16:00 +21°C° 0.2 mm 4 mps 734 mmHg 79%
    17:00 +21°C° 0.2 mm 4 mps 733 mmHg 80%
    18:00 +20°C° 0.7 mm 4 mps 733 mmHg 84%
    19:00 +19°C° 0.7 mm 4 mps 733 mmHg 87%
    20:00 +17°C° 0.7 mm 4 mps 733 mmHg 90%
    21:00 +17°C° 0 mm 3 mps 732 mmHg 91%
    22:00 +16°C° 0 mm 3 mps 732 mmHg 92%
    23:00 +15°C° 0 mm 2 mps 732 mmHg 93%

    26 May, Sunday

    Time Temperature Precipitation Wind Pressure Humidity
    00:00 +15°C° 0.1 mm 2 mps 732 mmHg 93%
    01:00 +15°C° 0.1 mm 2 mps 732 mmHg 93%
    02:00 +14°C° 0.1 mm 2 mps 731 mmHg 94%
    03:00 +14°C° 0 mm 2 mps 732 mmHg 93%
    04:00 +15°C° 0 mm 2 mps 732 mmHg 93%
    05:00 +14°C° 0 mm 3 mps 732 mmHg 93%
    06:00 +14°C° 0.1 mm 3 mps 732 mmHg 92%
    07:00 +16°C° 0.1 mm 3 mps 732 mmHg 91%
    08:00 +17°C° 0.1 mm 3 mps 732 mmHg 89%
    09:00 +18°C° 0 mm 4 mps 732 mmHg 81%
    10:00 +20°C° 0 mm 4 mps 733 mmHg 73%
    11:00 +21°C° 0 mm 5 mps 733 mmHg 64%
    12:00 +21°C° 0 mm 5 mps 733 mmHg 63%
    13:00 +21°C° 0 mm 5 mps 733 mmHg 61%
    14:00 +21°C° 0 mm 5 mps 733 mmHg 60%
    15:00 +21°C° 0 mm 5 mps 733 mmHg 63%
    16:00 +20°C° 0 mm 4 mps 733 mmHg 65%
    17:00 +20°C° 0 mm 4 mps 733 mmHg 68%
    18:00 +18°C° 0 mm 3 mps 734 mmHg 73%
    19:00 +16°C° 0 mm 3 mps 734 mmHg 77%
    20:00 +14°C° 0 mm 2 mps 734 mmHg 81%
    21:00 +14°C° 0 mm 2 mps 734 mmHg 83%
    22:00 +13°C° 0 mm 2 mps 734 mmHg 85%
    23:00 +12°C° 0 mm 2 mps 735 mmHg 86%

    27 May, Monday

    Time Temperature Precipitation Wind Pressure Humidity
    00:00 +12°C° 0 mm 2 mps 734 mmHg 88%
    01:00 +11°C° 0 mm 3 mps 734 mmHg 89%
    02:00 +10°C° 0 mm 3 mps 734 mmHg 90%
    03:00 +11°C° 0.1 mm 3 mps 734 mmHg 89%
    04:00 +12°C° 0.1 mm 4 mps 734 mmHg 88%
    05:00 +12°C° 0.1 mm 5 mps 734 mmHg 86%
    06:00 +12°C° 0.6 mm 5 mps 734 mmHg 86%
    07:00 +13°C° 0.6 mm 5 mps 734 mmHg 86%
    08:00 +13°C° 0.6 mm 5 mps 734 mmHg 85%
    09:00 +14°C° 0.1 mm 6 mps 734 mmHg 78%
    10:00 +15°C° 0.1 mm 7 mps 735 mmHg 70%
    11:00 +15°C° 0.1 mm 9 mps 735 mmHg 62%
    12:00 +16°C° 0.1 mm 8 mps 735 mmHg 59%
    13:00 +16°C° 0.1 mm 8 mps 736 mmHg 57%
    14:00 +16°C° 0.1 mm 8 mps 736 mmHg 54%
    15:00 +16°C° 0 mm 7 mps 737 mmHg 58%
    16:00 +15°C° 0 mm 7 mps 737 mmHg 62%
    17:00 +15°C° 0 mm 6 mps 738 mmHg 66%
    18:00 +14°C° 0 mm 5 mps 738 mmHg 71%
    19:00 +12°C° 0 mm 4 mps 739 mmHg 76%
    20:00 +11°C° 0 mm 4 mps 739 mmHg 82%
    21:00 +10°C° 0 mm 3 mps 739 mmHg 85%
    22:00 +10°C° 0 mm 3 mps 740 mmHg 88%
    23:00 +9°C° 0 mm 3 mps 740 mmHg 91%
    Show more